Location: The Jewett Observatory
(46.7288°N, 117.1525°W)
Time: 06:07:21
(UTC-07:00)

Amateur Radio Satellites - All Passes

Search period start: 30 April 2016 05:37
Search period end: 01 May 2016 05:37
Location: The Jewett Observatory, 46.7288°N, 117.1525°W

Satellite Date Start Highest point End Downlink Frequencies (MHz)
Time Altitude Azimuth
BRITE-PL 30 Apr 05:46:14 05:49:23 15° 86° (E) 05:52:31 437.365/2234.400
Cosmos 2491 30 Apr 05:46:24 05:52:47 23° 77° (ENE) 05:59:09 435.465 / 435.565
NOAA 18 30 Apr 06:09:13 06:13:45 26° 94° (E) 06:18:15 137.9125
AIST 2 30 Apr 06:12:44 06:16:54 80° 235° (SW) 06:21:02 435.215
CUTE-I 30 Apr 06:22:04 06:26:29 26° 93° (E) 06:30:53 437.470
Cosmos 2504 30 Apr 06:32:04 06:38:08 26° 65° (ENE) 06:44:27 435.465 / 435.565
LilacSat-2 30 Apr 06:42:01 06:45:30 32° 96° (E) 06:48:56 437.200
HORYU 2 30 Apr 06:44:13 06:47:54 26° 295° (WNW) 06:51:33 437.375
CUBESAT XI-V 30 Apr 06:47:51 06:50:43 16° 271° (W) 06:53:36 437.345
STRAND 1 30 Apr 06:50:14 06:55:16 65° 71° (ENE) 07:00:20 437.568
YUBILEINY 30 Apr 06:54:50 07:03:31 74° 265° (W) 07:12:11 435.215
SO-50 30 Apr 06:56:55 06:59:35 15° 109° (ESE) 07:02:15 436.795
AO-7 30 Apr 07:01:42 07:08:10 26° 311° (NW) 07:14:38 29.400- 29.500
Cubesat XI-IV 30 Apr 07:04:59 07:10:16 60° 101° (ESE) 07:15:30 437.490
GOMX 1 30 Apr 07:12:12 07:17:23 40° 96° (E) 07:22:23 467.674
NOAA 15 30 Apr 07:13:56 07:19:17 81° 287° (WNW) 07:24:36 137.62
BRITE-PL 30 Apr 07:22:51 07:28:34 89° 108° (ESE) 07:34:16 437.365/2234.400
DOVE 4 30 Apr 07:23:45 07:28:07 26° 92° (E) 07:32:18 437.250
RS-15 30 Apr 07:36:20 07:48:32 74° 240° (WSW) 08:00:45 29.354- 29.394
Cosmos 2491 30 Apr 07:39:38 07:48:29 85° 279° (W) 07:57:24 435.465 / 435.565
CANX-2 30 Apr 07:41:47 07:43:12 11° 88° (E) 07:44:37 2200.000
M-CUBED/EXP-1 PRIME 30 Apr 07:46:48 07:50:46 46° 104° (ESE) 07:54:24 437.505
NOAA 18 30 Apr 07:49:24 07:54:40 50° 292° (WNW) 07:59:55 137.9125
PRISM 30 Apr 07:52:09 07:56:08 56° 72° (ENE) 08:00:10 437.425
CUTE-I 30 Apr 08:01:40 08:06:46 48° 292° (WNW) 08:11:51 437.470
AUBIESAT-1 30 Apr 08:08:03 08:12:06 66° 107° (ESE) 08:15:48 437.475
CUTE 1.7 + AOD 2 30 Apr 08:13:36 08:16:55 22° 93° (E) 08:20:13 437.475
LilacSat-2 30 Apr 08:16:42 08:19:39 21° 294° (WNW) 08:22:35 437.200
Cosmos 2504 30 Apr 08:24:45 08:32:10 72° 265° (W) 08:40:07 435.465 / 435.565
ISS 30 Apr 08:26:57 08:29:44 26° 140° (SE) 08:32:31 145.825
CINEMA 3 30 Apr 08:28:39 08:32:59 34° 95° (E) 08:37:06 145.822/145.860
STRAND 1 30 Apr 08:31:29 08:34:55 18° 270° (W) 08:38:21 437.568
SO-50 30 Apr 08:34:28 08:39:24 88° 303° (WNW) 08:44:21 436.795
HO-68 30 Apr 08:42:26 08:49:21 49° 100° (E) 08:56:13 435.675
SEEDS 30 Apr 08:45:49 08:49:40 35° 97° (E) 08:53:30 437.485
Cubesat XI-IV 30 Apr 08:45:52 08:49:56 23° 300° (WNW) 08:54:00 437.490
GOMX 1 30 Apr 08:50:27 08:55:20 33° 295° (WNW) 09:00:05 467.674
YUBILEINY 30 Apr 08:54:00 08:58:43 16° 287° (WNW) 09:03:27 435.215
COMPASS 1 30 Apr 08:54:38 08:58:22 31° 96° (E) 09:02:06 437.405
NOAA 15 30 Apr 08:55:31 08:58:14 14° 306° (NW) 09:00:57 137.62
DOVE 4 30 Apr 09:01:01 09:06:00 45° 291° (WNW) 09:10:45 437.250
BRITE-PL 30 Apr 09:02:41 09:06:17 18° 302° (WNW) 09:09:55 437.365/2234.400
UNISAT 6 30 Apr 09:03:36 09:06:49 19° 62° (ENE) 09:10:00 437.425
CANX-2 30 Apr 09:15:22 09:19:35 74° 285° (WNW) 09:23:47 2200.000
TIGRISAT 30 Apr 09:21:26 09:25:15 26° 65° (ENE) 09:29:01 435.000
M-CUBED/EXP-1 PRIME 30 Apr 09:22:01 09:24:59 19° 304° (NW) 09:27:47 437.505
Oscar 11 30 Apr 09:23:24 09:26:49 23° 93° (E) 09:30:14 145.826/435.025
AAUSAT CUBESAT 2 30 Apr 09:28:07 09:32:13 59° 100° (E) 09:36:19 437.432
PRISM 30 Apr 09:29:35 09:31:50 14° 270° (W) 09:34:06 437.425
FUNcube-1 30 Apr 09:30:56 09:34:15 22° 93° (E) 09:37:30 145.935
DELFI C3 30 Apr 09:31:39 09:33:34 13° 90° (E) 09:35:29 145.870
UWE-3 30 Apr 09:33:58 09:37:58 36° 96° (E) 09:41:51 435.000/436.395/437.385
CUBEBUG 2 30 Apr 09:35:12 09:39:32 53° 100° (E) 09:43:40 437.445
Cosmos 2491 30 Apr 09:40:19 09:46:48 22° 303° (WNW) 09:53:20 435.465 / 435.565
AUBIESAT-1 30 Apr 09:43:48 09:46:02 14° 307° (NW) 09:48:10 437.475
ANTELSAT 30 Apr 09:44:30 09:48:53 43° 70° (ENE) 09:53:14 437.575/2403.000
CUTE 1.7 + AOD 2 30 Apr 09:48:59 09:52:53 37° 291° (WNW) 09:56:47 437.475
RS-15 30 Apr 09:50:49 09:58:51 21° 263° (W) 10:06:56 29.354- 29.394
ISS 30 Apr 10:02:46 10:06:00 62° 338° (NNW) 10:09:16 145.825
HUMSAT D 30 Apr 10:04:39 10:06:47 14° 90° (E) 10:08:55 437.325/437.525
CINEMA 3 30 Apr 10:05:55 10:10:02 30° 294° (WNW) 10:13:58 145.822/145.860
ZACube-1 30 Apr 10:11:02 10:15:16 61° 101° (E) 10:19:23 437.345
QB50P2 30 Apr 10:15:03 10:18:12 20° 63° (ENE) 10:21:23 145.880/145.840
SO-50 30 Apr 10:16:51 10:20:35 21° 328° (NNW) 10:24:18 436.795
POLYITAN 1 30 Apr 10:17:07 10:20:19 21° 63° (ENE) 10:23:32 437.675
DUCHIFAT 1 30 Apr 10:18:50 10:21:53 19° 63° (ENE) 10:24:56 145.980
POPSAT HIP 1 30 Apr 10:20:25 10:23:41 22° 64° (ENE) 10:26:58 437.405
Cosmos 2504 30 Apr 10:20:50 10:24:14 14° 285° (WNW) 10:27:45 435.465 / 435.565
SEEDS 30 Apr 10:21:51 10:25:14 24° 294° (WNW) 10:28:36 437.485
QB50P1 30 Apr 10:23:47 10:27:10 23° 65° (ENE) 10:30:36 145.935-145.965
COMPASS 1 30 Apr 10:30:23 10:33:51 26° 293° (WNW) 10:37:18 437.405
HO-68 30 Apr 10:30:26 10:36:56 39° 299° (WNW) 10:43:25 435.675
UNISAT 6 30 Apr 10:38:31 10:43:08 58° 259° (W) 10:47:42 437.425
GONETS M04 30 Apr 10:42:16 10:49:48 30° 63° (ENE) 10:57:12
Cosmos 2499 30 Apr 10:47:19 10:51:55 17° 58° (ENE) 10:56:39 435.465 / 435.565
TIGRISAT 30 Apr 10:57:20 11:01:45 40° 262° (W) 11:06:07 435.000
Oscar 11 30 Apr 10:59:06 11:03:05 38° 291° (WNW) 11:07:04 145.826/435.025
NANOSAT C BR1 30 Apr 10:59:20 11:03:27 49° 71° (ENE) 11:07:36 145.865
ESTCUBE 1 30 Apr 11:01:23 11:03:21 13° 88° (E) 11:05:19 437.505/2401.250
AAUSAT CUBESAT 2 30 Apr 11:04:50 11:07:17 15° 298° (WNW) 11:09:44 437.432
DELFI C3 30 Apr 11:04:54 11:08:49 58° 287° (WNW) 11:12:44 145.870
FUNcube-1 30 Apr 11:06:44 11:10:40 37° 291° (WNW) 11:14:29 145.935
UWE-3 30 Apr 11:10:47 11:14:16 24° 295° (WNW) 11:17:40 435.000/436.395/437.385
BUGSAT 1 30 Apr 11:11:39 11:15:25 32° 68° (ENE) 11:19:14 437.445
CUBEBUG 2 30 Apr 11:12:45 11:15:44 18° 298° (WNW) 11:18:39 437.445
ANTELSAT 30 Apr 11:22:02 11:25:45 23° 267° (W) 11:29:28 437.575/2403.000
50 SAT 30 Apr 11:32:42 11:35:18 18° 93° (E) 11:37:54 437.505
CUBEBUG 1 30 Apr 11:37:52 11:41:14 21° 92° (E) 11:44:36 437.445
HUMSAT D 30 Apr 11:38:47 11:42:49 57° 287° (WNW) 11:46:48 437.325/437.525
ISS 30 Apr 11:39:50 11:42:51 33° 359° (N) 11:45:52 145.825
JAS-2 30 Apr 11:40:55 11:45:53 27° 57° (ENE) 11:51:20 435.910
ZACube-1 30 Apr 11:48:35 11:51:05 15° 299° (WNW) 11:53:33 437.345
AIST 1 30 Apr 11:48:36 11:53:01 68° 79° (E) 11:57:24
QB50P2 30 Apr 11:49:36 11:53:43 45° 261° (W) 11:57:53 145.880/145.840
POLYITAN 1 30 Apr 11:51:44 11:55:51 45° 261° (W) 12:00:00 437.675
DUCHIFAT 1 30 Apr 11:53:08 11:57:15 48° 261° (W) 12:01:25 145.980
POPSAT HIP 1 30 Apr 11:55:09 11:59:13 42° 261° (W) 12:03:20 437.405
VELOX 1 30 Apr 11:57:18 12:01:20 32° 96° (E) 12:05:21 145.980
QB50P1 30 Apr 11:58:46 12:02:46 38° 262° (W) 12:06:48 145.935-145.965
DX 1 30 Apr 12:03:51 12:07:51 33° 97° (E) 12:11:49 434.975-435.025
Oscar 19 30 Apr 12:06:26 12:10:26 23° 61° (ENE) 12:14:26 437.125/150
PHONESAT 2.4 30 Apr 12:08:37 12:10:54 19° 165° (SSE) 12:13:13 2401.200-2431.200
UKube-1 30 Apr 12:15:26 12:19:27 35° 98° (E) 12:23:27 .
AO-85 30 Apr 12:17:49 12:20:36 14° 107° (ESE) 12:23:22 145.980
AISAT 30 Apr 12:28:44 12:33:14 70° 102° (ESE) 12:37:41 437.250
AO-7 30 Apr 12:32:27 12:35:16 12° 33° (NNE) 12:38:06 29.400- 29.500
ESTCUBE 1 30 Apr 12:36:10 12:40:43 77° 285° (WNW) 12:45:14 437.505/2401.250
NANOSAT C BR1 30 Apr 12:36:35 12:39:28 18° 269° (W) 12:42:23 145.865
GONETS M04 30 Apr 12:38:42 12:47:25 70° 266° (W) 12:56:03
Cosmos 2499 30 Apr 12:38:47 12:46:22 74° 79° (E) 12:54:33 435.465 / 435.565
BUGSAT 1 30 Apr 12:47:15 12:50:49 26° 265° (W) 12:54:26 437.445
SPROUT 30 Apr 12:50:21 12:54:30 44° 99° (E) 12:58:36 437.525
50 SAT 30 Apr 13:05:53 13:09:14 34° 290° (WNW) 13:12:33 437.505
CUBEBUG 1 30 Apr 13:13:30 13:17:44 44° 290° (WNW) 13:21:57 437.445
ISS 30 Apr 13:16:31 13:19:44 52° 18° (NNE) 13:22:57 145.825
Gurwin Techsat 1B 30 Apr 13:17:25 13:22:19 39° 67° (ENE) 13:27:15 435.225
ITAMSAT 1 30 Apr 13:19:25 13:23:06 20° 59° (ENE) 13:26:47 435.822/435.867
JAS-2 30 Apr 13:24:28 13:30:20 64° 260° (W) 13:37:03 435.910
AIST 1 30 Apr 13:28:03 13:30:01 13° 277° (W) 13:32:00
VELOX 1 30 Apr 13:33:52 13:37:45 29° 294° (WNW) 13:41:37 145.980
TISAT 1 30 Apr 13:34:32 13:38:34 40° 98° (E) 13:42:32 437.305
DX 1 30 Apr 13:40:12 13:43:57 28° 295° (WNW) 13:47:41 434.975-435.025
SO-50 30 Apr 13:44:00 13:45:44 12° 17° (NNE) 13:47:28 436.795
Oscar 19 30 Apr 13:44:18 13:49:22 56° 259° (W) 13:54:30 437.125/150
PHONESAT 2.4 30 Apr 13:44:34 13:47:16 26° 182° (S) 13:49:59 2401.200-2431.200
ITUPSAT 1 30 Apr 13:47:45 13:49:24 12° 87° (E) 13:51:02 437.325
UKube-1 30 Apr 13:51:46 13:55:22 26° 295° (WNW) 13:58:56 .
AO-85 30 Apr 13:54:52 14:00:21 80° 125° (SE) 14:05:45 145.980
SWISSCUBE 30 Apr 13:57:30 14:00:33 17° 91° (E) 14:03:33 437.505
AISAT 30 Apr 14:06:34 14:09:11 15° 301° (WNW) 14:11:47 437.250
ESTCUBE 1 30 Apr 14:15:43 14:16:44 11° 304° (NW) 14:17:44 437.505/2401.250
AO-7 30 Apr 14:18:18 14:25:49 41° 57° (ENE) 14:33:21 29.400- 29.500
SPROUT 30 Apr 14:26:58 14:30:10 21° 297° (WNW) 14:33:22 437.525
BEESAT 30 Apr 14:30:11 14:34:24 30° 96° (E) 14:38:34 436.000
Cosmos 2499 30 Apr 14:32:59 14:38:48 25° 278° (W) 14:44:56 435.465 / 435.565
GONETS M04 30 Apr 14:38:08 14:42:30 15° 288° (WNW) 14:46:52
ISS 30 Apr 14:53:07 14:56:07 34° 217° (SW) 14:59:07 145.825
ITAMSAT 1 30 Apr 14:56:56 15:02:05 67° 258° (WSW) 15:07:16 435.822/435.867
Gurwin Techsat 1B 30 Apr 14:57:38 15:02:20 32° 265° (W) 15:07:05 435.225
TISAT 1 30 Apr 15:10:43 15:14:00 22° 296° (WNW) 15:17:15 437.305
CUSAT 1 30 Apr 15:12:29 15:15:28 28° 88° (E) 15:19:11 437.405
PHONESAT 2.4 30 Apr 15:21:30 15:23:37 17° 198° (SSW) 15:25:43 2401.200-2431.200
ITUPSAT 1 30 Apr 15:23:06 15:27:54 88° 285° (WNW) 15:32:41 437.325
SO-50 30 Apr 15:23:24 15:27:44 32° 40° (NE) 15:31:56 436.795
O/OREOS (USA 219) 30 Apr 15:26:30 15:30:59 55° 110° (ESE) 15:35:29 437.305
MOZHAYETS 4 30 Apr 15:27:17 15:27:33 10° 86° (E) 15:27:50
PCSat 30 Apr 15:29:56 15:33:59 22° 107° (ESE) 15:38:01 145.827
DANDE 30 Apr 15:33:18 15:34:58 14° 85° (E) 15:36:48 436.750
SWISSCUBE 30 Apr 15:34:03 15:38:46 63° 288° (WNW) 15:43:27 437.505
AO-85 30 Apr 15:36:56 15:41:27 26° 324° (NW) 15:45:52 145.980
KKS-1 30 Apr 15:40:21 15:43:47 21° 93° (E) 15:47:10 437.445
Cosmos 2491 30 Apr 15:51:50 15:56:05 14° 49° (NE) 16:00:17 435.465 / 435.565
NOAA 18 30 Apr 16:01:49 16:03:52 12° 51° (NE) 16:05:55 137.9125
STARS 30 Apr 16:04:08 16:07:22 20° 92° (E) 16:10:34 437.465
HORYU 2 30 Apr 16:07:50 16:12:09 48° 70° (ENE) 16:16:28 437.375
BEESAT 30 Apr 16:07:54 16:12:12 34° 294° (WNW) 16:16:29 436.000
AO-7 30 Apr 16:10:17 16:18:22 56° 258° (WSW) 16:26:31 29.400- 29.500
Cubesat XI-IV 30 Apr 16:51:50 16:55:43 21° 59° (ENE) 16:59:37 437.490
CUSAT 1 30 Apr 16:54:55 16:57:44 21° 298° (WNW) 17:01:09 437.405
NOAA 15 30 Apr 16:58:03 17:02:42 33° 64° (ENE) 17:07:23 137.62
BRITE-PL 30 Apr 16:59:49 17:03:20 20° 59° (ENE) 17:07:01 437.365/2234.400
MOZHAYETS 4 30 Apr 17:00:49 17:05:25 87° 106° (ESE) 17:09:59
M-CUBED/EXP-1 PRIME 30 Apr 17:02:44 17:05:33 16° 54° (NE) 17:08:21 437.505
ITUPSAT 1 30 Apr 17:02:49 17:05:02 13° 304° (WNW) 17:07:16 437.325
CUBESAT XI-V 30 Apr 17:03:46 17:05:50 13° 87° (E) 17:07:53 437.345
SO-50 30 Apr 17:03:52 17:08:22 44° 241° (WSW) 17:12:43 436.795
O/OREOS (USA 219) 30 Apr 17:07:11 17:10:44 21° 309° (NW) 17:14:17 437.305
PCSat 30 Apr 17:11:30 17:16:53 65° 306° (NW) 17:22:19 145.827
DANDE 30 Apr 17:15:01 17:17:28 24° 293° (WNW) 17:20:24 436.750
KKS-1 30 Apr 17:16:17 17:20:33 44° 291° (WNW) 17:24:47 437.445
AO-85 30 Apr 17:22:05 17:23:47 11° 348° (NNW) 17:25:27 145.980
AUBIESAT-1 30 Apr 17:23:02 17:26:21 20° 56° (ENE) 17:29:36 437.475
LilacSat-2 30 Apr 17:26:51 17:30:06 26° 68° (ENE) 17:33:22 437.200
HO-68 30 Apr 17:31:56 17:34:34 12° 42° (NE) 17:37:11 435.675
NOAA 18 30 Apr 17:38:04 17:43:31 65° 70° (ENE) 17:48:59 137.9125
STARS 30 Apr 17:39:43 17:43:59 47° 290° (WNW) 17:48:11 437.465
HORYU 2 30 Apr 17:45:44 17:48:59 19° 268° (W) 17:52:13 437.375
CUTE-I 30 Apr 17:46:30 17:51:41 56° 70° (ENE) 17:56:53 437.470
Cosmos 2491 30 Apr 17:46:36 17:55:19 57° 74° (ENE) 18:03:55 435.465 / 435.565
YUBILEINY 30 Apr 18:04:26 18:11:25 28° 80° (E) 18:18:23 435.215
AO-7 30 Apr 18:12:23 18:13:03 10° 278° (W) 18:13:44 29.400- 29.500
GOMX 1 30 Apr 18:22:33 18:27:25 54° 71° (ENE) 18:32:37 467.674
Cubesat XI-IV 30 Apr 18:30:01 18:35:19 66° 257° (WSW) 18:40:38 437.490
DOVE 4 30 Apr 18:31:15 18:35:52 36° 67° (ENE) 18:40:40 437.250
M-CUBED/EXP-1 PRIME 30 Apr 18:34:46 18:39:30 85° 251° (WSW) 18:44:13 437.505
BRITE-PL 30 Apr 18:36:31 18:41:15 63° 260° (W) 18:46:26 437.365/2234.400
CANX-2 30 Apr 18:37:27 18:39:28 13° 60° (ENE) 18:41:28 2200.000
NOAA 15 30 Apr 18:37:30 18:42:23 38° 263° (W) 18:47:20 137.62
CUBESAT XI-V 30 Apr 18:39:05 18:43:48 80° 285° (WNW) 18:48:29 437.345
MOZHAYETS 4 30 Apr 18:39:52 18:41:55 13° 302° (WNW) 18:43:58
AUBIESAT-1 30 Apr 18:55:46 19:00:24 64° 253° (WSW) 19:04:59 437.475
PCSat 30 Apr 18:57:49 19:01:21 17° 328° (NNW) 19:04:55 145.827
BEESAT 3 30 Apr 18:58:13 19:01:44 32° 118° (ESE) 19:05:17 437.485
STRAND 1 30 Apr 18:58:51 19:02:14 18° 90° (E) 19:05:35 437.568
LilacSat-2 30 Apr 19:00:59 19:04:21 28° 265° (W) 19:07:44 437.200
BEESAT 2 30 Apr 19:01:23 19:04:27 21° 114° (ESE) 19:07:31 435.950
AO-85 30 Apr 19:04:55 19:06:40 12° 13° (NNE) 19:08:21 145.980
CUTE 1.7 + AOD 2 30 Apr 19:09:08 19:12:29 23° 65° (ENE) 19:15:50 437.475
HO-68 30 Apr 19:13:50 19:20:38 49° 64° (ENE) 19:27:28 435.675
Cosmos 2504 30 Apr 19:17:16 19:21:30 17° 77° (ENE) 19:25:43 435.465 / 435.565
NOAA 18 30 Apr 19:20:38 19:24:38 20° 269° (W) 19:28:40 137.9125
CUTE-I 30 Apr 19:27:59 19:32:04 22° 268° (W) 19:36:12 437.470
CINEMA 3 30 Apr 19:32:08 19:36:53 45° 70° (ENE) 19:41:40 145.822/145.860
SEEDS 30 Apr 19:40:13 19:44:00 35° 69° (ENE) 19:47:49 437.485
Cosmos 2491 30 Apr 19:44:01 19:51:47 36° 276° (W) 19:59:30 435.465 / 435.565
COMPASS 1 30 Apr 19:48:09 19:51:48 31° 68° (ENE) 19:55:28 437.405
YUBILEINY 30 Apr 19:58:42 20:07:25 72° 282° (WNW) 20:16:09 435.215
RS-15 30 Apr 19:59:55 20:03:53 12° 91° (E) 20:07:55 29.354- 29.394
GOMX 1 30 Apr 20:01:58 20:05:52 22° 270° (W) 20:09:57 467.674
DOVE 4 30 Apr 20:08:55 20:13:32 34° 266° (W) 20:18:21 437.250
CANX-2 30 Apr 20:10:33 20:14:46 74° 257° (WSW) 20:19:00 2200.000
M-CUBED/EXP-1 PRIME 30 Apr 20:13:11 20:14:39 11° 268° (W) 20:16:07 437.505
CUBESAT XI-V 30 Apr 20:18:48 20:20:24 12° 303° (WNW) 20:22:01 437.345
Oscar 11 30 Apr 20:20:51 20:24:26 26° 66° (ENE) 20:28:00 145.826/435.025
AAUSAT CUBESAT 2 30 Apr 20:20:53 20:24:55 55° 72° (ENE) 20:28:57 437.432
DELFI C3 30 Apr 20:21:13 20:22:55 13° 60° (ENE) 20:24:37 145.870
FUNcube-1 30 Apr 20:28:50 20:32:37 27° 66° (ENE) 20:36:22 145.935
UWE-3 30 Apr 20:33:04 20:37:28 44° 70° (ENE) 20:41:49 435.000/436.395/437.385
CUBEBUG 2 30 Apr 20:35:15 20:39:57 64° 73° (ENE) 20:44:36 437.445
BEESAT 3 30 Apr 20:35:53 20:39:26 31° 316° (NW) 20:43:02 437.485
STRAND 1 30 Apr 20:36:48 20:41:53 67° 288° (WNW) 20:46:57 437.568
BEESAT 2 30 Apr 20:38:13 20:42:03 45° 313° (NW) 20:45:55 435.950
CUTE 1.7 + AOD 2 30 Apr 20:44:14 20:48:09 37° 263° (W) 20:52:05 437.475
AO-85 30 Apr 20:44:35 20:48:54 28° 37° (NE) 20:52:53 145.980
HUMSAT D 30 Apr 20:58:46 21:01:20 16° 62° (ENE) 21:03:54 437.325/437.525
HO-68 30 Apr 21:01:57 21:08:31 38° 263° (W) 21:15:06 435.675
PRISM 30 Apr 21:05:55 21:10:04 61° 102° (ESE) 21:14:12 437.425
Cosmos 2504 30 Apr 21:06:30 21:13:48 89° 98° (E) 21:21:00 435.465 / 435.565
ZACube-1 30 Apr 21:08:57 21:13:27 69° 75° (ENE) 21:17:55 437.345
CINEMA 3 30 Apr 21:10:02 21:14:11 26° 268° (W) 21:18:22 145.822/145.860
SEEDS 30 Apr 21:16:27 21:19:48 23° 266° (W) 21:23:10 437.485
COMPASS 1 30 Apr 21:23:56 21:27:23 26° 266° (W) 21:30:53 437.405
AIST 2 30 Apr 21:50:39 21:54:47 85° 129° (SE) 21:58:58 435.215
DELFI C3 30 Apr 21:53:21 21:57:16 69° 259° (WSW) 22:01:14 145.870
AISAT 30 Apr 21:55:35 21:57:16 12° 57° (ENE) 21:58:56 437.250
Oscar 11 30 Apr 21:56:30 22:00:26 34° 263° (W) 22:04:24 145.826/435.025
AAUSAT CUBESAT 2 30 Apr 21:58:28 22:00:46 14° 270° (W) 22:03:05 437.432
YUBILEINY 30 Apr 22:00:33 22:06:04 18° 306° (NW) 22:11:34 435.215
RS-15 30 Apr 22:02:24 22:13:18 58° 114° (ESE) 22:24:48 29.354- 29.394
ESTCUBE 1 30 Apr 22:03:24 22:06:22 18° 61° (ENE) 22:09:20 437.505/2401.250
FUNcube-1 30 Apr 22:04:34 22:08:45 36° 263° (W) 22:12:52 145.935
UWE-3 30 Apr 22:10:27 22:14:06 23° 267° (W) 22:17:44 435.000/436.395/437.385
CUBEBUG 2 30 Apr 22:13:59 22:16:58 16° 270° (W) 22:19:57 437.445
50 SAT 30 Apr 22:14:56 22:17:00 15° 63° (ENE) 22:19:03 437.505
STRAND 1 30 Apr 22:18:40 22:20:08 11° 307° (NW) 22:21:34 437.568
BEESAT 2 30 Apr 22:19:49 22:20:55 11° 334° (NNW) 22:22:00 435.950
AO-85 30 Apr 22:24:58 22:29:45 55° 239° (WSW) 22:34:03 145.980
UNISAT 6 30 Apr 22:28:04 22:31:34 23° 93° (E) 22:34:59 437.425
PCSat 30 Apr 22:31:20 22:33:24 12° 22° (NNE) 22:35:28 145.827
HUMSAT D 30 Apr 22:32:23 22:36:33 59° 259° (WSW) 22:40:43 437.325/437.525
CUBEBUG 1 30 Apr 22:36:31 22:40:06 25° 65° (ENE) 22:43:43 437.445
PRISM 30 Apr 22:42:30 22:44:57 15° 299° (WNW) 22:47:23 437.425
TIGRISAT 30 Apr 22:46:05 22:50:02 33° 96° (E) 22:53:54 435.000
ZACube-1 30 Apr 22:47:47 22:50:12 14° 271° (W) 22:52:35 437.345
VELOX 1 30 Apr 22:57:09 23:01:19 41° 69° (ENE) 23:05:29 145.980
DX 1 30 Apr 23:01:52 23:05:58 41° 69° (ENE) 23:10:06 434.975-435.025
Cosmos 2504 30 Apr 23:03:23 23:08:16 19° 300° (WNW) 23:13:08 435.465 / 435.565
ANTELSAT 30 Apr 23:09:50 23:14:11 61° 101° (E) 23:18:25 437.575/2403.000
UKube-1 30 Apr 23:12:29 23:16:35 44° 69° (ENE) 23:20:42 .
AISAT 30 Apr 23:28:35 23:33:02 87° 73° (ENE) 23:37:32 437.250
AIST 2 30 Apr 23:30:59 23:33:50 18° 326° (NW) 23:36:42 435.215
QB50P2 30 Apr 23:32:04 23:35:30 23° 94° (E) 23:38:53 145.880/145.840
POLYITAN 1 30 Apr 23:34:11 23:37:38 23° 94° (E) 23:41:02 437.675
DUCHIFAT 1 30 Apr 23:34:56 23:38:14 21° 93° (E) 23:41:28 145.980
POPSAT HIP 1 30 Apr 23:37:20 23:40:52 25° 94° (E) 23:44:20 437.405
ESTCUBE 1 30 Apr 23:38:20 23:42:44 59° 259° (W) 23:47:12 437.505/2401.250
QB50P1 30 Apr 23:40:43 23:44:21 27° 95° (E) 23:47:57 145.935-145.965
SPROUT 30 Apr 23:46:25 23:50:34 49° 71° (ENE) 23:54:46 437.525
50 SAT 30 Apr 23:46:54 23:50:27 48° 260° (W) 23:54:01 437.505
GONETS M04 30 Apr 23:47:57 23:55:14 30° 81° (E) 00:02:30
O/OREOS (USA 219) 30 Apr 23:54:53 23:58:33 23° 52° (NE) 00:02:12 437.305
UNISAT 6 01 May 00:04:22 00:08:26 38° 291° (WNW) 00:12:23 437.425
CUBEBUG 1 01 May 00:12:10 00:16:13 37° 263° (W) 00:20:20 437.445
PCSat 01 May 00:13:26 00:18:28 36° 46° (NE) 00:23:28 145.827
RS-15 01 May 00:14:44 00:25:58 56° 321° (NW) 00:37:51 29.354- 29.394
NANOSAT C BR1 01 May 00:16:25 00:20:39 61° 101° (E) 00:24:48 145.865
AIST 1 01 May 00:21:00 00:24:53 33° 90° (E) 00:28:48
TIGRISAT 01 May 00:22:58 00:26:39 27° 294° (WNW) 00:30:15 435.000
BUGSAT 1 01 May 00:25:38 00:29:34 36° 97° (E) 00:33:25 437.445
TISAT 1 01 May 00:28:41 00:32:43 44° 70° (ENE) 00:36:47 437.305
JAS-2 01 May 00:30:34 00:36:17 22° 87° (E) 00:42:02 435.910
VELOX 1 01 May 00:34:26 00:37:56 23° 267° (W) 00:41:28 145.980
DX 1 01 May 00:38:57 00:42:20 22° 267° (W) 00:45:45 434.975-435.025
ANTELSAT 01 May 00:47:44 00:50:25 16° 300° (WNW) 00:53:05 437.575/2403.000
UKube-1 01 May 00:49:37 00:52:50 20° 267° (W) 00:56:05 .
ITUPSAT 1 01 May 00:56:25 00:59:53 21° 61° (ENE) 01:03:22 437.325
SWISSCUBE 01 May 01:06:23 01:10:22 27° 64° (ENE) 01:14:21 437.505
QB50P2 01 May 01:07:30 01:11:25 36° 291° (WNW) 01:15:17 145.880/145.840
AISAT 01 May 01:09:14 01:10:10 11° 273° (W) 01:11:05 437.250
POLYITAN 1 01 May 01:09:38 01:13:32 36° 291° (WNW) 01:17:24 437.675
DUCHIFAT 1 01 May 01:10:07 01:14:05 39° 291° (WNW) 01:17:59 145.980
POPSAT HIP 1 01 May 01:12:52 01:16:43 34° 292° (WNW) 01:20:33 437.405
QB50P1 01 May 01:16:23 01:20:09 31° 293° (WNW) 01:23:53 145.935-145.965
Cosmos 2499 01 May 01:19:22 01:26:12 53° 91° (E) 01:33:03 435.465 / 435.565
SPROUT 01 May 01:23:50 01:26:49 18° 269° (W) 01:29:48 437.525
Gurwin Techsat 1B 01 May 01:32:41 01:34:34 12° 86° (E) 01:36:25 435.225
O/OREOS (USA 219) 01 May 01:33:51 01:38:13 47° 251° (WSW) 01:42:31 437.305
BEESAT 3 01 May 01:36:28 01:37:50 11° 27° (NNE) 01:39:12 437.485
BEESAT 01 May 01:39:07 01:43:42 48° 69° (ENE) 01:48:17 436.000
CUSAT 1 01 May 01:39:48 01:46:20 45° 72° (ENE) 01:53:51 437.405
GONETS M04 01 May 01:42:33 01:51:22 68° 283° (WNW) 02:00:12
Oscar 19 01 May 01:52:53 01:57:49 41° 98° (E) 02:02:43 437.125/150
NANOSAT C BR1 01 May 01:53:24 01:55:55 16° 299° (WNW) 01:58:26 145.865
PCSat 01 May 01:56:50 02:01:58 43° 246° (WSW) 02:07:02 145.827
AIST 1 01 May 01:59:00 02:02:32 24° 289° (WNW) 02:06:08
BUGSAT 1 01 May 02:01:22 02:04:46 24° 295° (WNW) 02:08:07 437.445
DANDE 01 May 02:03:24 02:08:56 35° 71° (ENE) 02:15:41 436.750
TISAT 1 01 May 02:05:28 02:08:35 20° 268° (W) 02:11:43 437.305
JAS-2 01 May 02:14:22 02:22:06 89° 285° (WNW) 02:30:00 435.910
MOZHAYETS 4 01 May 02:30:33 02:33:11 15° 60° (ENE) 02:35:49
RS-15 01 May 02:31:25 02:41:47 33° 353° (N) 02:52:32 29.354- 29.394
ITUPSAT 1 01 May 02:32:41 02:37:21 56° 259° (W) 02:42:03 437.325
KKS-1 01 May 02:40:56 02:44:45 28° 65° (ENE) 02:48:36 437.445
SWISSCUBE 01 May 02:43:34 02:48:00 39° 262° (W) 02:52:29 437.505
STARS 01 May 03:03:19 03:06:59 26° 65° (ENE) 03:10:40 437.465
ITAMSAT 1 01 May 03:06:59 03:11:43 34° 97° (E) 03:16:25 435.822/435.867
Gurwin Techsat 1B 01 May 03:09:59 03:15:20 82° 104° (ESE) 03:20:39 435.225
BEESAT 3 01 May 03:12:36 03:16:29 50° 49° (NE) 03:20:19 437.485
Cosmos 2499 01 May 03:13:31 03:19:40 31° 293° (WNW) 03:25:52 435.465 / 435.565
BEESAT 2 01 May 03:16:00 03:19:43 35° 45° (NE) 03:23:24 435.950
BEESAT 01 May 03:18:05 03:21:44 22° 267° (W) 03:25:24 436.000
CUSAT 1 01 May 03:21:59 03:28:28 44° 267° (W) 03:35:52 437.405
Oscar 19 01 May 03:32:30 03:37:00 30° 296° (WNW) 03:41:29 437.125/150
GONETS M04 01 May 03:44:47 03:50:10 17° 307° (NW) 03:55:33
DANDE 01 May 03:45:56 03:51:53 51° 265° (W) 03:59:18 436.750
JAS-2 01 May 04:00:26 04:06:13 24° 305° (NW) 04:12:10 435.910
MOZHAYETS 4 01 May 04:05:15 04:09:48 72° 258° (WSW) 04:14:23
AO-7 01 May 04:08:17 04:16:10 44° 99° (E) 04:24:01 29.400- 29.500
CUBESAT XI-V 01 May 04:09:35 04:12:40 18° 61° (ENE) 04:15:47 437.345
YUBILEINY 01 May 04:09:59 04:15:12 17° 53° (NE) 04:20:22 435.215
KKS-1 01 May 04:17:09 04:21:13 34° 263° (W) 04:25:20 437.445
AIST 2 01 May 04:31:32 04:34:49 22° 38° (NE) 04:38:05 435.215
STARS 01 May 04:39:04 04:43:11 37° 262° (W) 04:47:20 437.465
ITAMSAT 1 01 May 04:46:30 04:51:10 35° 295° (WNW) 04:55:50 435.822/435.867
RS-15 01 May 04:47:03 04:58:24 42° 27° (NNE) 05:09:56 29.354- 29.394
BEESAT 3 01 May 04:51:04 04:53:51 19° 247° (WSW) 04:56:38 437.485
Gurwin Techsat 1B 01 May 04:51:17 04:54:38 17° 303° (WNW) 04:57:58 435.225
BEESAT 2 01 May 04:54:03 04:57:29 28° 243° (WSW) 05:00:53 435.950
Cosmos 2491 01 May 05:01:58 05:04:44 12° 69° (ENE) 05:07:29 435.465 / 435.565
